Flag for Taiwan Weather past 2 weeks in Taipei, Taiwan

Now
70 °F

Partly sunny.


Feels Like: 70 °F
Forecast: 68 / 81 °F
Wind: 13 mph from Southeast

Location: Sungshan / Taipei


UV Index: 7 (High)

Visibility: N/A


Pressure: 29.95 "Hg

Humidity: 78%

Dew point: 63 °F

Location of TaipeiLocation

Historic Weather in Taipei

°F

Taipei temperature yesterday

Maximum temperature yesterday: 77 °F (at 12:00 AM)
Minimum temperature yesterday: 68 °F (at 8:30 PM)
Average temperature yesterday: 72 °F

Past Weeks' High & Low Weather Summary

 TemperatureHumidityPressure
High88 °F (Apr 11, 2:00 PM)94% (Apr 8, 3:00 AM)30.15 "Hg (Apr 8, 3:00 AM)
Low64 °F (Apr 6, 10:30 PM)33% (Apr 11, 2:00 PM)29.80 "Hg (Apr 12, 2:00 PM)
Average74 °F68%29.95 "Hg
* Reported Apr 6 7:00 AM — Apr 21 7:00 AM, Taipei, Weather by CustomWeather, © 2014

Note: Actual official high and low records may vary slightly from our data, if they occured in-between our weather recording intervals... More about our weather records

Advertising

Historic Weather Conditions — Data for Previous 24 hours

 ConditionsComfort  
Time TempWeatherWind HumidityBarometerVisibility
7:00 AM
Apr 21
70 °FCloudy.12 mph78%29.95 "HgN/A
6:30 AM70 °FCloudy.10 mph78%29.95 "HgN/A
6:00 AM70 °FCloudy.8 mph78%29.95 "HgN/A
5:00 AM70 °FPassing clouds.7 mph78%29.95 "HgN/A
4:00 AM70 °FPassing clouds.12 mph78%29.92 "HgN/A
3:00 AM70 °FPassing clouds.9 mph78%29.92 "HgN/A
2:00 AM70 °FPassing clouds.13 mph78%29.92 "HgN/A
1:00 AM68 °FPassing clouds.12 mph83%29.92 "HgN/A
12:00 AM68 °FPassing clouds.15 mph83%29.92 "HgN/A
11:30 PM
Apr 20
68 °FPassing clouds.13 mph83%29.92 "HgN/A
11:00 PM68 °FPartly cloudy.13 mph83%29.95 "HgN/A
10:30 PM68 °FPartly cloudy.13 mph83%29.95 "HgN/A
10:00 PM68 °FPassing clouds.14 mph83%29.95 "HgN/A
9:30 PM68 °FPassing clouds.14 mph83%29.95 "HgN/A
9:00 PM68 °FPassing clouds.15 mph83%29.95 "HgN/A
8:30 PM68 °FPassing clouds.13 mph88%29.92 "HgN/A
8:00 PM70 °FPassing clouds.9 mph83%29.92 "HgN/A
7:30 PM70 °FPassing clouds.12 mph78%29.92 "HgN/A
7:00 PM70 °FPassing clouds.14 mph78%29.92 "HgN/A
6:30 PM70 °FPassing clouds.14 mph78%29.89 "HgN/A
6:00 PM70 °FPartly sunny.15 mph78%29.89 "HgN/A
5:30 PM70 °FPartly sunny.16 mph78%29.89 "HgN/A
5:00 PM70 °FPartly sunny.16 mph78%29.89 "HgN/A
4:30 PM70 °FPartly sunny.16 mph83%29.89 "HgN/A
4:00 PM70 °FPartly sunny.17 mph83%29.89 "HgN/A
3:30 PM70 °FPartly sunny.15 mph83%29.89 "HgN/A
3:00 PM72 °FPartly sunny.17 mph78%29.89 "HgN/A
2:30 PM72 °FPartly sunny.16 mph78%29.89 "HgN/A
2:00 PM72 °FPartly sunny.15 mph83%29.89 "HgN/A
1:30 PM72 °FPartly sunny.15 mph83%29.89 "HgN/A
1:00 PM73 °FScattered showers. Broken clouds.14 mph78%29.92 "HgN/A
12:30 PM72 °FLight rain. Partly sunny.13 mph83%29.92 "Hg6 mi
12:00 PM72 °FLight rain. Partly sunny.13 mph83%29.92 "Hg4 mi
11:30 AM72 °FLight rain. Partly sunny.13 mph83%29.92 "Hg4 mi
11:00 AM73 °FDrizzle. Partly sunny.13 mph78%29.92 "Hg6 mi
10:30 AM75 °FDrizzle. Partly sunny.13 mph78%29.92 "HgN/A
10:00 AM77 °FDrizzle. Partly sunny.9 mph74%29.92 "Hg5 mi
9:30 AM75 °FDrizzle. Partly sunny.6 mph78%29.92 "Hg6 mi
9:00 AM77 °FDrizzle. Partly sunny.9 mph74%29.92 "HgN/A
8:30 AM77 °FScattered showers. Partly sunny.8 mph74%29.89 "Hg6 mi
8:00 AM77 °FPartly sunny.No wind79%29.89 "Hg5 mi
7:30 AM77 °FPartly sunny.1 mph74%29.89 "Hg5 mi
7:00 AM77 °FPartly sunny.3 mph79%29.89 "Hg5 mi
Weather by CustomWeather, © 2014

See weather overview